Theta_e
339 331 333 335 337 345 344 339 340 344 341 338 337 337 335 331 330 328 327 325 319 317 318 317 317 317 319 320 322 323 323 325 326 326 328 331 333 335 336 336 336 337 337 337 338 336 337 338 339 339 339 340 339 339 337 336 337 338 337 338 337 335 335 336 336 336 336 336 337 337 338 337 335 335 333 333 333 332 332 332 332 331 331 332 332
338 334 337 337 339 345 345 340 341 344 342 338 337 337 335 332 330 329 328 325 320 316 317 317 319 323 326 327 327 327 325 326 329 332 335 339 340 339 338 337 335 337 339 339 339 338 337 336 336 336 337 338 337 337 337 336 335 335 335 336 336 334 334 333 333 335 336 336 336 336 336 335 334 334 333 333 333 333 333 332 332 332 331 331 331
335 337 340 340 343 346 346 344 344 345 342 339 337 337 335 332 330 329 327 327 323 317 316 317 320 324 327 327 326 325 324 326 333 337 339 341 342 340 339 337 337 337 338 339 339 340 338 337 335 334 335 335 336 335 335 335 334 333 333 334 333 332 331 331 333 335 334 333 334 335 335 334 334 334 334 333 333 333 331 331 332 332 331 331 329
333 336 341 344 346 346 346 346 347 345 342 340 337 336 335 332 331 329 327 328 326 319 317 318 322 325 324 325 324 324 323 327 335 340 340 341 341 341 340 339 339 337 338 339 340 340 339 339 337 335 334 335 335 334 334 334 334 333 333 333 331 331 331 331 332 331 329 329 330 331 333 334 334 333 333 333 333 332 331 331 332 331 332 331 328
332 336 341 344 345 346 346 347 347 345 342 340 337 336 335 332 330 330 327 328 329 323 319 319 323 325 324 323 323 323 324 327 336 341 342 341 342 342 341 341 340 338 338 339 339 340 340 340 339 336 334 334 335 334 334 334 334 334 333 333 332 332 331 330 329 329 329 329 327 328 332 334 333 333 333 333 332 332 332 332 333 332 332 331 329
333 338 341 343 344 346 346 347 347 346 343 340 337 336 335 332 331 330 328 328 331 328 323 320 323 325 324 322 323 324 326 330 338 341 342 342 342 342 342 342 340 339 339 339 338 338 338 340 340 338 334 333 334 334 334 334 334 336 335 334 335 333 332 332 332 332 331 330 328 326 330 333 333 333 334 333 331 332 333 332 331 331 331 331 330
335 337 339 342 345 346 346 346 346 346 344 341 337 336 335 332 331 331 328 329 332 331 326 322 323 325 323 321 323 326 330 335 339 341 341 342 342 342 341 341 341 339 339 339 338 337 337 340 340 340 336 333 333 334 334 334 334 335 335 336 337 335 334 335 334 333 332 332 329 327 329 332 334 334 333 334 332 330 332 331 331 331 331 330 330
337 338 340 341 345 346 346 346 346 345 345 342 337 335 335 332 331 331 329 330 333 333 329 325 325 325 323 323 325 329 335 338 340 341 341 341 341 341 341 341 339 338 337 338 339 337 336 337 337 337 335 333 333 335 335 334 334 333 334 336 337 336 336 336 335 334 333 333 329 328 330 331 333 335 333 334 333 331 332 332 331 331 331 329 330
343 343 343 343 345 346 346 345 346 346 345 342 337 336 334 332 331 331 330 330 333 335 331 328 326 325 325 325 327 331 337 339 339 340 340 340 340 340 340 339 337 335 335 337 338 337 336 335 334 331 331 332 333 334 333 333 333 333 333 333 335 336 337 337 336 335 334 333 329 329 332 330 331 334 332 331 332 331 331 331 330 330 331 330 330
345 345 345 345 346 346 345 345 346 345 345 342 337 336 335 332 332 332 331 331 334 336 334 332 329 328 328 328 331 333 337 338 338 338 338 338 338 339 339 338 336 333 335 338 337 336 336 336 334 330 328 330 331 332 332 332 333 333 333 332 332 333 333 334 335 336 335 333 330 330 333 332 331 333 332 331 331 331 331 330 330 331 331 330 330
342 343 344 345 346 346 345 345 345 345 344 343 340 336 334 333 332 332 331 332 334 336 337 337 336 334 335 336 336 336 336 337 335 334 333 333 335 336 337 337 335 334 336 337 336 335 335 335 333 329 328 329 330 331 332 332 332 332 331 330 330 330 331 332 334 336 336 334 331 331 332 332 332 333 331 332 332 331 331 331 331 331 331 330 328
339 341 343 344 345 345 345 344 344 344 345 344 342 337 334 333 333 332 332 332 334 337 339 339 338 339 340 339 337 336 334 332 331 329 328 327 331 334 336 336 334 334 335 335 335 333 334 333 331 329 327 327 328 329 330 330 330 330 329 329 329 331 333 333 335 336 335 334 331 330 332 332 333 332 331 331 332 331 331 331 331 331 331 330 329
341 343 345 345 345 344 344 343 343 344 344 344 343 339 334 333 334 333 332 333 335 337 339 339 339 340 339 335 332 331 330 330 330 330 328 324 326 332 334 335 334 334 334 334 334 333 333 331 329 329 326 325 326 326 327 327 328 328 328 328 330 333 334 335 336 336 335 333 331 330 330 331 331 330 329 329 331 331 330 330 330 330 330 329 329
343 344 345 344 345 344 342 342 342 343 344 343 342 340 336 334 334 333 333 334 336 338 339 339 339 337 335 332 331 331 331 332 332 330 328 324 324 329 331 332 332 332 332 334 334 333 331 329 328 327 326 326 326 326 326 325 326 326 328 330 331 333 334 335 336 335 335 332 330 330 330 329 328 326 325 329 332 332 331 331 329 330 330 329 329
342 342 341 340 341 341 340 341 342 343 343 342 342 340 338 336 335 334 334 335 337 338 339 338 336 334 333 333 333 333 333 333 332 331 329 325 323 326 329 329 328 328 330 332 333 331 328 327 327 327 327 327 326 325 325 325 325 326 328 330 331 333 334 335 335 334 333 331 330 330 329 328 327 326 325 330 332 331 331 330 329 330 329 329 329
339 339 338 337 336 337 340 341 341 342 342 342 341 340 339 337 335 335 335 336 338 338 337 336 335 335 335 335 335 335 335 334 333 331 329 325 323 325 327 328 327 328 328 329 330 328 326 327 326 327 328 328 327 326 325 325 325 325 327 329 330 333 334 335 335 334 332 331 331 330 330 329 328 327 326 329 330 330 331 330 330 330 328 328 328
337 336 336 336 336 336 338 340 342 342 341 341 340 339 338 336 336 335 336 338 339 338 336 335 336 336 337 337 337 337 336 334 333 332 330 326 324 325 327 327 328 329 329 328 328 327 327 326 326 327 328 328 327 326 325 325 325 325 326 328 330 332 333 334 334 333 333 331 331 331 330 330 329 327 325 326 327 328 330 330 330 329 328 328 328
337 336 335 336 335 336 337 337 340 340 340 340 338 337 337 336 336 336 337 338 338 337 336 336 337 337 337 337 337 338 337 336 334 332 331 327 325 326 327 327 328 331 330 329 328 328 328 326 327 327 327 328 327 326 326 325 325 324 325 327 329 331 333 334 334 333 332 331 331 331 331 330 329 328 325 324 325 328 331 330 330 329 329 329 328
337 336 335 335 335 336 336 335 337 339 339 338 337 336 337 336 336 337 337 337 337 336 337 336 336 336 336 337 337 337 338 337 336 334 332 329 327 327 328 327 328 331 331 330 329 329 329 328 328 327 327 328 327 326 326 325 325 324 325 326 328 332 333 333 333 333 332 331 332 332 331 330 329 328 326 325 326 329 330 330 330 329 330 329 328
335 335 335 335 334 334 335 335 336 338 338 337 337 337 338 338 337 337 336 336 335 335 336 335 335 336 336 336 337 337 337 338 338 336 334 332 330 329 328 328 329 330 331 331 330 330 330 329 329 329 328 327 327 326 326 325 324 324 324 326 328 333 334 333 333 333 332 332 332 331 330 330 329 328 327 325 326 329 329 329 329 329 329 328 328
338 337 336 335 332 333 335 332 334 337 337 336 337 338 339 339 338 337 336 334 333 334 335 334 334 335 336 335 335 336 337 338 338 337 335 334 333 332 331 330 330 331 331 330 330 330 330 329 328 328 327 327 326 326 325 325 324 324 324 326 329 334 335 333 333 332 332 332 332 331 330 330 328 327 327 326 328 330 329 329 329 328 329 329 328
340 338 336 335 332 333 334 332 333 337 336 336 337 339 340 339 338 336 335 334 334 335 335 335 335 335 335 334 335 335 336 337 338 337 336 334 333 333 333 332 331 331 331 331 330 329 328 328 326 326 325 324 325 326 325 325 324 324 323 326 330 333 335 334 332 332 332 332 332 331 329 328 328 327 327 327 329 329 327 328 329 328 329 330 329
339 338 336 337 335 333 335 336 337 336 335 335 336 339 339 338 337 336 335 335 336 336 334 334 334 333 334 334 334 335 336 337 337 337 337 335 334 333 334 333 332 331 331 331 330 330 327 325 324 324 324 322 322 323 324 324 324 324 324 326 330 332 334 334 333 332 332 332 332 330 328 327 327 327 327 328 328 327 327 328 328 328 328 328 328
339 337 334 337 337 334 336 339 338 336 333 334 335 338 338 337 337 337 336 335 335 334 332 332 332 332 334 334 335 335 336 336 337 337 337 336 335 334 333 333 333 332 332 331 330 330 328 325 323 323 323 321 321 321 323 325 325 325 326 326 328 330 332 335 333 332 332 332 331 329 327 326 327 328 328 328 327 326 328 330 328 328 328 327 328
338 335 332 336 336 334 337 338 338 337 332 332 334 337 337 337 338 337 334 333 333 331 330 330 331 332 333 333 334 335 336 336 336 337 336 336 335 334 333 334 333 333 333 331 331 330 328 326 323 325 325 323 321 322 324 327 327 328 328 327 328 328 328 334 334 332 333 332 332 330 328 327 326 328 329 328 326 326 329 329 328 327 327 327 327
338 336 334 335 335 335 337 338 339 338 332 330 333 336 336 336 336 335 333 332 330 330 330 330 331 334 334 334 335 335 336 336 336 336 336 336 335 335 335 334 333 333 333 332 331 330 329 326 324 328 330 327 325 325 327 329 329 329 330 328 329 328 325 330 335 333 332 332 331 329 329 327 326 327 329 328 325 326 329 329 328 327 327 327 327
337 337 337 336 335 336 338 339 340 339 334 331 333 334 335 334 333 333 331 330 330 331 331 332 333 334 335 335 335 335 335 336 336 335 336 335 335 336 336 336 334 334 333 332 332 330 328 327 327 330 331 330 329 329 329 330 330 329 329 329 328 327 323 327 334 334 332 332 331 330 329 327 326 327 329 328 326 328 330 328 328 328 327 326 327
337 337 337 337 337 337 337 338 340 341 336 332 333 333 333 332 331 331 331 331 331 332 333 333 333 334 335 335 335 335 335 336 336 335 335 335 335 336 337 336 336 335 334 333 332 330 329 330 330 331 332 331 330 330 330 330 330 329 329 329 328 327 325 325 331 334 333 331 331 330 330 328 327 326 328 328 326 329 330 329 329 328 327 327 327
338 337 336 338 339 338 337 338 339 339 335 331 331 331 331 330 330 330 331 332 332 333 333 333 333 333 334 334 335 335 335 335 335 335 335 335 335 336 336 336 336 335 335 334 333 332 330 331 332 333 333 332 331 331 330 330 330 329 328 329 329 329 329 327 329 334 333 331 331 330 330 329 327 326 328 327 326 329 330 329 329 328 327 327 326
337 336 336 338 339 339 339 338 337 334 330 329 329 329 329 329 329 330 331 332 332 333 333 333 333 333 334 334 335 335 335 335 334 335 335 335 336 336 336 335 336 335 335 335 334 333 332 332 332 333 333 333 333 332 330 330 330 328 328 329 329 329 330 329 329 332 333 331 331 331 331 330 328 327 328 327 326 330 331 329 329 328 328 327 327
337 336 337 339 338 339 340 338 338 334 330 329 328 329 329 329 329 329 331 332 332 333 334 335 334 334 334 334 335 335 335 335 335 334 334 335 336 336 335 335 335 335 335 335 334 334 333 333 333 333 333 333 334 332 330 330 330 328 328 328 328 329 329 329 329 330 332 331 331 331 331 330 329 328 327 328 326 329 332 329 328 328 328 327 327
337 337 338 338 338 339 340 338 338 336 333 332 331 332 333 334 332 330 332 334 334 336 337 337 336 335 335 335 335 335 336 336 335 334 335 335 336 335 335 335 335 335 334 334 334 334 333 333 333 333 333 333 333 332 331 331 330 329 328 327 327 328 328 329 328 329 332 331 330 331 331 330 329 328 328 328 326 328 331 329 328 328 327 327 327
337 337 337 337 338 339 339 339 339 338 336 335 335 336 337 337 335 333 334 336 337 338 337 337 336 336 336 336 336 336 335 335 334 335 335 335 335 336 335 335 334 333 333 333 333 333 333 333 333 333 333 333 332 332 332 332 330 329 328 328 327 327 327 328 328 328 330 330 331 331 331 330 329 329 328 329 327 328 330 331 329 329 327 327 326
336 336 338 338 338 339 339 340 340 339 339 338 338 339 339 338 337 336 336 338 338 337 336 336 335 336 336 336 335 336 335 334 334 334 334 334 335 335 334 334 333 332 333 333 332 332 332 332 333 333 332 332 332 332 332 331 330 329 328 328 328 327 327 326 327 327 329 330 332 331 331 331 330 329 328 329 329 329 330 331 330 329 329 328 326
337 337 338 339 339 340 340 340 341 341 340 340 340 340 340 339 338 337 337 336 336 335 335 335 334 335 335 335 334 334 335 334 334 334 334 334 334 334 333 333 332 332 332 332 332 332 332 333 332 333 333 332 332 331 331 330 329 329 329 328 328 328 327 327 327 327 328 330 332 332 331 331 330 329 329 329 329 330 330 330 330 330 330 329 327
339 337 337 338 339 339 340 341 341 341 341 341 340 340 339 339 337 336 335 334 334 334 334 334 334 334 334 334 333 333 334 334 334 334 333 333 334 334 333 333 332 333 333 332 332 332 332 333 332 333 333 332 332 331 330 329 329 328 329 329 328 328 328 327 326 327 330 330 332 332 332 332 331 330 329 329 329 330 330 330 330 330 330 330 329
336 335 336 338 339 340 340 341 341 342 341 341 340 339 338 337 335 334 333 333 333 333 333 333 334 334 334 335 334 333 334 334 334 333 333 333 333 333 333 333 332 333 333 332 332 332 332 333 332 333 333 332 332 331 330 329 329 328 328 328 328 329 329 328 327 328 330 331 332 332 331 332 331 330 330 329 328 329 330 330 330 331 330 331 330
333 333 336 338 340 340 340 341 342 342 340 339 338 337 336 335 334 333 332 332 332 332 333 334 334 333 333 333 333 333 333 333 333 334 333 333 332 332 333 332 332 332 332 331 332 332 332 332 332 332 333 333 332 332 331 330 329 328 328 328 328 329 329 328 328 328 329 331 332 331 331 331 331 330 330 330 329 328 328 329 330 331 330 330 331
331 331 336 338 339 340 340 341 341 340 338 336 336 336 335 334 333 332 331 330 331 332 333 333 332 332 332 331 332 331 331 331 331 332 331 331 331 331 331 331 331 331 331 331 332 332 332 332 331 332 332 332 332 332 331 330 329 329 329 328 329 329 329 328 328 328 329 330 330 330 330 330 330 330 330 330 330 329 328 328 328 330 330 330 331
330 332 335 337 339 340 340 340 340 338 337 335 335 334 334 333 332 332 331 330 331 332 332 332 331 331 330 330 330 329 329 328 327 327 328 330 329 329 329 329 330 330 330 331 331 332 332 331 331 331 332 331 332 332 331 331 330 329 329 329 329 329 329 328 328 328 328 328 328 328 328 328 329 328 329 329 330 330 329 328 328 328 328 329 330
332 334 334 335 338 339 339 339 338 337 335 334 333 333 333 332 332 332 331 330 330 331 330 330 330 330 328 327 327 328 328 326 325 324 326 328 328 327 328 328 329 329 330 330 330 331 331 330 330 330 330 330 331 330 331 331 329 329 329 329 329 330 330 330 329 328 327 327 326 327 326 326 327 327 327 328 329 330 330 329 329 327 328 328 329
333 333 331 333 337 337 337 338 336 334 333 332 332 332 332 332 332 331 331 330 330 331 329 328 327 327 326 325 325 326 326 324 323 323 324 326 327 327 328 328 328 329 329 329 329 330 331 330 329 329 328 329 329 329 330 330 330 329 328 328 330 330 329 330 330 329 328 327 325 325 325 326 326 326 326 327 327 328 329 329 329 329 328 327 328
332 332 331 332 335 336 336 336 334 332 332 332 331 331 331 330 329 328 329 329 329 329 327 325 324 324 322 321 323 324 324 322 322 322 323 326 326 326 327 328 328 328 328 329 329 330 330 329 328 328 328 328 328 328 329 330 330 329 328 329 330 330 331 329 330 330 329 328 326 325 325 325 325 325 325 326 326 327 328 329 329 329 329 328 328
331 332 332 332 334 335 335 334 332 331 331 331 330 329 328 327 326 327 327 327 327 326 324 323 322 322 320 320 321 322 322 322 322 322 323 325 325 326 327 327 327 327 327 328 328 329 330 329 328 329 328 328 328 328 328 328 329 329 328 328 326 330 334 329 327 329 329 329 329 328 327 326 325 324 324 326 326 326 327 328 328 328 328 329 329
332 332 332 333 334 335 334 332 331 330 331 329 327 327 325 325 325 325 325 324 324 323 322 323 322 321 321 321 321 321 322 322 321 322 323 323 323 324 325 325 325 325 326 326 328 328 329 329 328 329 328 328 328 327 328 328 329 328 327 327 327 332 334 328 325 328 328 328 328 327 327 327 327 325 324 326 327 327 327 328 328 328 328 328 329
331 332 332 333 333 333 332 330 329 329 329 327 326 325 324 324 324 323 323 322 322 322 322 322 321 321 321 321 321 320 321 320 320 321 320 320 321 321 324 326 324 323 323 324 325 327 327 328 328 328 328 328 327 327 328 329 329 329 327 328 329 331 330 326 326 327 327 327 326 326 327 327 328 326 326 328 329 328 328 327 327 328 329 329 329
332 332 333 332 332 332 330 329 328 328 326 325 325 324 324 323 324 323 322 322 322 321 321 322 321 321 321 320 320 320 320 319 318 317 317 317 317 319 322 324 322 320 320 321 323 325 326 327 327 328 327 328 327 327 328 328 328 329 328 327 327 327 327 327 328 328 330 329 326 326 326 327 328 327 328 329 329 329 328 328 328 329 329 329 329
333 333 333 332 331 331 329 328 327 326 325 324 322 323 323 323 324 323 323 322 320 320 322 322 321 321 321 320 320 320 319 318 316 315 315 315 314 315 317 319 319 318 318 319 320 322 323 325 326 326 325 325 325 326 326 327 328 328 328 327 326 325 325 326 326 327 331 332 329 325 323 324 327 327 328 329 328 329 328 327 327 327 327 328 328
333 333 333 332 331 331 329 326 325 325 326 325 323 322 323 323 324 323 323 322 318 318 322 322 321 322 321 320 319 318 318 318 317 315 314 314 312 310 311 314 316 315 316 317 318 319 321 322 324 324 322 321 321 322 322 323 325 326 327 325 324 323 322 323 324 324 326 329 329 325 319 320 324 323 322 324 325 325 324 323 324 325 325 326 327
332 332 332 331 330 329 327 325 325 326 326 325 324 323 323 324 324 323 322 320 317 319 322 322 322 322 320 319 317 316 315 316 315 314 314 313 311 309 310 312 313 313 314 315 315 317 318 320 321 320 319 318 317 318 318 320 322 324 324 324 323 320 318 318 320 320 319 321 323 320 315 316 320 317 315 317 320 322 322 321 322 322 322 322 323
328 329 331 331 330 328 327 327 327 327 326 325 325 324 323 323 323 323 322 319 317 320 322 322 321 321 319 318 316 315 314 315 315 314 314 314 312 312 312 313 313 312 312 313 313 314 317 317 317 316 316 317 317 317 317 318 320 321 321 320 319 317 316 315 316 316 316 317 320 318 313 314 317 314 313 316 317 319 319 316 316 317 317 318 319
Wind_Speed
19 21 18 18 18 19 19 22 23 24 23 22 22 22 22 22 23 24 25 27 27 28 28 28 28 28 27 26 26 25 25 25 24 23 22 21 21 20 19 18 18 17 17 18 17 17 17 17 16 15 14 14 13 13 15 16 17 18 19 19 18 18 19 18 18 19 18 18 18 17 16 15 15 16 16 16 16 15 15 15 17 17 16 15 14
23 20 18 18 18 19 18 21 23 24 23 23 23 22 22 22 23 24 25 26 27 27 27 27 27 26 26 25 25 25 25 24 23 23 23 22 21 19 18 17 17 18 17 17 17 16 16 15 15 14 13 13 13 13 14 16 16 17 19 19 19 19 18 18 19 20 19 18 17 17 16 15 15 15 16 16 15 14 14 14 16 16 15 15 14
25 20 18 17 19 19 18 20 21 23 23 23 23 22 23 22 23 23 24 25 26 27 27 27 27 26 26 25 25 24 24 23 22 22 22 21 19 18 17 17 18 18 17 17 17 16 15 15 15 14 13 13 14 14 15 16 17 19 20 20 19 19 18 18 18 18 18 17 17 16 16 16 16 16 15 15 15 14 13 14 15 15 15 14 13
26 21 18 18 18 18 18 20 21 22 23 23 23 23 23 22 23 23 24 24 25 26 26 26 26 26 26 25 24 23 22 22 21 20 20 19 18 16 16 17 18 18 18 17 16 15 14 15 16 15 14 14 14 14 15 16 18 19 20 20 20 19 18 18 18 17 17 17 16 17 18 17 15 15 15 16 15 15 15 15 15 15 15 14 13
26 22 20 19 18 19 19 20 21 21 22 23 24 23 23 22 23 23 23 23 24 25 25 25 25 25 24 24 22 22 21 21 21 19 19 17 17 16 16 16 16 16 16 16 15 14 13 14 15 14 14 14 14 15 15 16 19 19 19 20 20 19 19 18 18 18 17 16 15 17 18 17 14 14 14 14 15 15 15 15 14 14 14 14 14
26 23 21 20 19 20 20 21 21 21 22 23 24 23 23 23 23 23 23 23 23 23 24 23 23 23 23 22 21 20 20 20 20 18 18 17 16 15 15 15 15 15 15 15 15 14 13 13 13 13 13 14 14 15 15 16 18 19 18 18 17 18 19 18 17 16 15 15 15 16 17 17 17 15 13 13 14 14 14 14 13 14 14 13 14
26 25 23 21 21 20 20 21 20 21 21 22 24 23 23 23 23 22 22 22 22 23 23 23 22 22 22 21 20 19 20 19 18 18 17 16 15 15 15 15 15 15 15 14 13 13 13 13 13 13 11 12 14 15 16 16 16 17 17 16 15 15 15 13 12 12 12 13 13 15 16 17 17 14 12 12 13 13 14 13 13 13 13 12 14
24 24 24 24 23 23 22 22 21 21 20 21 24 23 23 23 23 22 22 22 21 22 22 22 22 21 20 19 18 18 18 18 18 18 17 16 15 15 15 14 14 14 14 13 12 12 12 11 11 10 9 9 13 15 15 15 15 15 15 14 14 14 13 10 9 9 9 10 11 13 14 15 15 13 12 12 12 12 13 13 13 13 12 12 14
21 20 21 24 24 24 24 23 22 21 20 20 23 24 23 23 23 23 22 21 21 21 21 21 21 20 18 17 17 17 18 18 17 17 16 15 15 15 15 14 13 13 14 13 11 10 11 10 10 9 8 10 12 14 14 14 13 12 11 11 11 12 11 9 8 8 8 9 10 11 12 13 13 12 10 10 12 11 12 12 12 12 12 13 13
22 20 19 21 21 22 24 23 22 21 20 19 22 23 23 23 23 23 22 21 20 20 20 20 20 19 17 16 16 16 17 17 16 15 14 13 13 14 14 13 12 13 14 13 11 9 10 10 9 9 10 11 12 13 13 13 12 11 10 9 8 8 7 7 8 8 8 9 9 10 10 11 11 10 9 10 12 12 13 13 12 12 12 11 11
24 23 21 19 19 20 22 23 21 21 20 19 20 22 23 23 23 22 21 20 19 19 19 18 18 18 17 16 16 15 15 15 14 13 12 12 12 12 13 12 11 12 13 12 10 8 8 9 8 8 10 11 12 13 13 12 11 10 9 8 7 6 5 6 9 10 9 9 9 9 9 9 9 9 9 11 12 12 12 12 13 12 11 10 10
23 23 22 19 17 17 19 21 21 20 19 19 19 21 22 23 23 22 21 20 19 18 18 18 17 17 16 16 15 15 15 14 13 12 12 11 11 11 12 12 12 12 11 10 9 7 7 7 7 7 8 11 12 12 12 11 10 9 8 8 7 6 5 6 9 11 10 10 9 8 9 8 9 8 8 10 11 11 11 12 12 12 11 11 11
22 21 21 19 17 16 18 18 19 19 18 18 18 20 22 23 22 22 20 19 18 18 17 17 16 16 15 15 15 15 15 14 13 13 12 11 11 12 12 12 12 11 10 9 7 7 5 5 6 6 8 11 12 12 11 10 9 8 7 7 7 7 6 6 9 12 11 11 9 8 9 8 7 6 6 9 11 11 10 11 11 11 11 11 11
23 21 20 19 17 15 17 18 18 18 18 19 19 20 21 22 22 21 20 18 18 17 17 17 16 16 15 15 15 15 15 14 14 13 12 12 12 12 12 11 11 10 10 9 7 6 5 5 7 8 10 12 12 11 11 10 9 8 6 7 7 7 8 9 12 14 12 11 9 9 8 7 5 5 6 9 12 11 10 10 10 10 11 11 9
25 23 21 20 18 14 14 17 18 18 18 19 19 20 21 21 22 20 19 18 18 17 18 17 16 15 15 15 14 15 14 14 13 13 12 12 12 12 11 10 9 10 10 9 8 7 6 8 9 11 12 12 11 11 10 10 9 8 6 6 7 8 8 11 14 14 12 11 9 8 7 6 5 5 6 9 11 11 10 9 10 10 10 10 9
24 24 22 21 21 16 13 15 17 18 18 18 19 20 21 21 21 20 19 18 18 18 18 18 16 15 14 14 13 13 13 13 13 12 12 12 12 12 11 9 9 10 10 9 9 8 9 10 11 12 11 11 11 10 10 9 9 8 7 6 7 8 8 12 14 13 12 10 9 8 7 6 5 5 6 8 9 10 10 9 10 9 9 10 8
24 24 24 22 22 18 16 16 16 17 18 18 19 20 21 21 21 20 19 19 19 18 18 17 16 15 14 13 13 12 12 12 12 12 12 12 12 12 11 10 10 10 10 9 9 9 10 11 13 12 10 10 10 10 9 9 9 8 7 7 8 8 7 11 13 13 11 10 8 7 6 5 4 3 4 6 7 9 10 10 10 9 9 9 8
25 25 26 25 23 20 19 18 18 19 19 20 20 20 20 20 20 19 19 19 18 17 16 16 15 14 13 12 12 11 11 12 12 12 11 11 12 12 11 10 10 10 9 9 9 9 10 11 12 11 9 9 9 9 9 8 8 7 7 7 7 7 6 10 12 12 11 9 7 7 6 5 3 2 3 5 6 9 10 9 9 9 8 8 8
27 27 27 27 26 23 22 22 22 22 22 22 22 22 20 19 19 19 19 19 17 17 16 15 14 13 12 11 11 10 10 10 11 11 11 11 11 11 10 9 9 9 8 8 9 9 10 10 11 10 9 8 7 7 7 7 7 7 6 7 7 7 7 10 12 12 11 8 7 6 5 4 3 2 3 4 6 10 11 10 9 8 8 8 8
27 28 28 27 27 27 26 25 25 25 24 24 23 22 19 18 18 18 18 17 16 16 15 14 13 12 11 11 10 9 9 9 10 10 9 9 9 9 8 8 8 8 7 7 8 8 8 9 9 9 8 7 6 5 5 6 6 6 6 7 7 7 7 10 13 13 11 8 6 5 5 3 2 2 3 4 7 9 10 10 9 8 8 8 8
25 26 27 27 27 28 29 27 26 26 25 24 22 20 18 17 17 18 17 16 15 14 13 13 12 11 11 10 10 9 9 8 9 9 8 8 8 8 7 7 7 7 6 6 7 7 7 7 7 7 6 6 5 4 4 4 6 6 5 7 7 6 7 9 12 12 11 8 6 5 4 3 2 3 4 5 7 9 10 10 8 7 8 7 7
23 24 26 27 28 28 28 28 28 28 27 24 22 20 19 18 17 17 17 15 14 14 13 13 12 11 10 9 9 9 9 9 8 8 8 7 7 7 7 7 6 6 6 6 6 6 6 5 5 4 4 5 4 4 4 4 4 5 5 7 7 5 5 8 11 11 10 8 6 5 3 3 3 3 4 6 8 9 9 9 9 7 7 7 7
22 25 27 26 27 28 27 27 27 28 27 24 22 20 19 18 18 17 17 16 15 14 14 12 11 10 9 8 9 8 9 8 7 7 7 7 7 7 7 6 6 6 5 5 5 5 5 4 4 3 3 3 4 4 4 4 4 4 4 6 7 5 5 7 10 11 9 8 6 4 3 3 4 4 5 7 8 8 8 9 9 8 7 7 7
24 26 27 26 26 26 25 25 25 27 28 25 23 21 20 19 18 18 17 17 15 13 12 11 10 8 8 8 8 8 8 8 7 7 7 7 7 7 7 7 7 6 5 5 5 5 5 4 3 2 2 2 3 4 4 4 4 3 2 4 6 6 4 6 9 10 10 9 7 5 4 3 4 5 6 7 7 7 9 9 8 8 7 7 7
23 24 26 25 26 26 25 25 25 27 27 25 24 22 21 20 18 18 16 15 13 12 11 10 9 8 8 8 8 8 8 8 8 7 7 7 7 8 8 8 8 7 7 6 6 6 4 3 2 2 1 1 2 3 4 3 2 1 0 2 5 6 4 5 7 9 10 9 8 6 4 4 5 6 7 7 7 7 9 10 9 8 8 7 7
20 21 24 26 26 26 25 25 25 26 26 25 24 22 21 20 18 17 15 14 12 11 10 9 9 8 9 9 9 9 8 8 8 8 7 7 7 8 8 8 8 8 8 7 6 6 4 3 2 2 2 2 3 3 3 1 3 3 2 1 4 6 4 5 6 8 10 9 8 7 5 4 5 6 7 7 6 8 10 9 9 8 8 8 7
19 19 22 25 25 24 23 23 24 25 25 23 22 21 19 18 17 16 14 13 11 10 10 9 8 9 9 9 9 9 9 9 8 8 9 8 8 9 8 9 9 9 9 8 7 6 5 4 3 3 2 2 3 2 1 1 4 5 4 2 4 5 5 6 7 8 9 9 9 7 5 4 5 6 8 7 6 9 10 9 9 8 8 8 7
20 19 19 20 20 20 21 21 22 22 23 21 20 20 18 17 16 14 13 11 10 9 9 8 8 8 9 9 9 9 9 9 9 9 9 9 8 9 9 10 10 10 10 9 8 7 6 5 4 3 2 1 2 1 1 3 4 6 5 4 4 4 5 6 8 9 10 10 10 8 6 5 5 6 7 7 6 9 10 9 9 9 8 8 8
23 22 20 19 18 18 20 19 18 19 21 19 18 18 17 16 15 13 12 11 10 9 8 8 8 8 8 8 8 9 9 9 10 10 10 10 9 9 9 9 10 11 10 9 9 8 7 6 4 3 2 2 2 2 3 3 4 6 6 5 5 5 5 6 8 10 11 11 11 9 7 6 6 6 8 7 7 9 11 10 10 9 9 9 9
26 25 24 22 20 18 18 17 17 19 20 19 17 16 15 15 14 12 12 11 10 9 8 8 8 8 9 9 8 8 8 8 9 10 11 11 10 9 7 7 8 9 10 10 9 9 8 7 6 5 5 5 5 5 4 4 3 4 6 6 7 7 7 6 8 11 12 12 11 9 7 7 6 7 8 7 7 10 12 11 10 10 10 9 9
25 26 26 24 22 17 17 17 17 19 20 19 17 15 14 13 13 12 11 10 9 8 8 8 8 8 9 9 8 8 7 6 7 9 10 10 9 8 6 6 6 7 8 10 10 9 9 8 8 8 7 7 6 5 5 4 3 2 5 5 7 8 9 8 9 11 13 13 12 10 9 8 7 7 8 8 7 10 12 10 9 10 11 10 10
22 23 23 22 21 16 15 17 17 20 20 18 16 14 13 12 12 11 10 9 8 8 7 7 7 7 8 8 7 8 7 6 6 7 8 8 7 6 6 6 5 5 7 9 10 9 9 9 9 8 8 7 5 4 4 3 3 3 4 4 4 6 8 9 9 11 14 15 14 12 10 10 9 9 8 8 7 9 12 9 7 10 10 10 11
23 22 19 19 19 16 16 18 18 20 19 17 15 13 12 11 10 10 9 9 8 8 7 6 6 7 7 7 7 7 7 6 7 7 7 7 7 7 6 7 7 6 7 8 9 9 9 9 9 8 7 7 5 4 3 2 2 2 3 4 4 4 5 7 8 10 14 17 16 14 12 11 11 11 10 9 8 8 11 9 7 9 8 8 10
22 23 22 20 21 19 18 19 18 19 17 15 14 13 12 10 10 9 8 8 7 7 6 5 5 5 6 7 7 8 7 8 8 8 8 8 8 8 7 7 7 7 7 7 8 8 8 8 8 8 8 7 6 5 3 3 1 1 1 3 4 3 2 5 7 10 14 17 17 15 13 12 11 12 12 11 10 8 10 10 8 9 9 7 8
21 21 22 22 22 20 18 18 18 17 16 14 14 13 11 10 9 7 6 6 6 5 4 4 4 3 4 6 7 7 7 8 8 8 9 9 8 7 6 5 6 7 7 8 8 8 8 8 8 8 8 7 5 3 2 2 2 1 1 1 2 2 1 3 8 12 14 16 18 16 15 13 13 13 13 12 11 10 10 11 9 10 10 9 7
21 21 21 20 19 17 18 17 16 16 15 14 14 13 11 9 7 6 4 4 4 3 3 3 3 3 3 4 4 5 6 6 6 7 8 8 8 6 6 5 6 7 8 8 8 8 9 9 8 8 7 7 6 2 0 1 2 2 3 1 1 2 1 2 6 12 15 17 17 17 16 14 14 14 14 13 12 11 11 11 11 10 11 11 9
20 20 21 22 19 16 15 14 15 15 14 14 14 11 10 8 6 5 5 4 3 3 3 5 5 4 4 3 3 3 4 4 4 6 7 7 7 6 6 6 6 7 8 8 8 8 9 9 9 7 7 8 8 5 2 2 2 3 3 2 1 2 3 3 5 10 14 16 17 17 17 15 15 15 13 13 13 12 12 12 12 11 12 13 11
17 17 20 22 21 18 16 13 13 14 14 14 13 10 8 7 8 7 6 5 3 4 6 7 6 6 5 4 4 4 3 2 2 4 4 4 4 4 6 7 7 7 8 8 8 9 10 10 9 7 8 8 8 6 5 3 2 2 2 2 3 2 4 5 5 7 10 12 13 14 15 15 16 15 14 14 14 13 13 13 13 12 13 14 14
19 21 22 22 22 20 17 14 13 14 14 13 12 10 9 9 10 9 7 5 5 6 7 7 7 7 6 5 5 5 4 4 3 3 2 2 1 2 4 6 6 7 8 8 9 10 10 10 8 7 8 8 8 7 6 4 3 2 2 2 2 3 5 7 7 7 8 9 9 10 10 12 14 15 15 15 14 14 14 14 13 13 13 14 15
24 25 23 22 23 20 18 16 14 15 15 13 13 12 11 11 11 10 9 7 7 8 8 8 8 7 6 6 5 5 5 6 5 4 3 2 2 2 3 3 4 5 6 7 8 8 8 8 8 7 7 8 8 7 7 6 4 1 1 2 3 3 5 7 9 9 9 10 10 9 8 8 9 11 13 14 15 15 15 15 14 14 14 14 15
28 27 21 18 21 20 19 17 14 15 15 15 15 14 14 14 12 12 10 9 10 9 9 9 8 7 7 6 5 5 6 5 4 4 4 4 3 2 2 2 3 3 3 5 6 7 7 6 5 5 5 6 7 7 7 7 5 3 2 3 4 4 3 5 7 7 8 9 8 8 7 6 5 6 8 10 12 15 15 15 15 15 16 16 15
27 25 20 17 20 21 19 18 16 16 16 15 16 16 16 15 14 13 12 11 11 10 11 10 9 9 8 6 5 6 6 5 3 4 5 5 4 4 3 3 3 3 3 4 5 7 8 7 5 4 4 5 6 7 7 6 5 5 4 2 2 3 4 4 5 5 6 7 7 8 8 7 5 3 5 7 9 12 14 15 16 16 16 17 17
22 19 18 17 20 22 19 18 19 18 16 16 18 18 16 14 13 13 13 13 12 12 12 12 11 9 7 6 6 6 6 5 4 3 5 6 5 5 5 4 4 3 4 5 6 8 9 8 7 6 6 5 4 5 7 6 5 5 3 1 1 2 2 2 4 4 4 5 5 6 8 8 8 6 5 6 7 9 12 15 17 17 17 18 18
21 19 19 18 21 23 21 20 21 21 20 19 19 19 17 15 14 14 14 15 15 15 14 13 11 9 7 6 6 6 6 5 4 4 5 6 6 5 6 6 6 6 6 6 6 7 8 7 6 6 6 6 5 4 5 5 5 5 2 1 1 2 1 1 2 4 4 4 4 4 5 6 6 7 7 7 8 8 10 12 15 17 18 18 18
22 22 22 21 22 24 23 22 23 24 23 22 20 19 19 18 19 18 17 17 17 16 15 13 11 10 9 8 7 7 6 6 6 6 7 7 6 6 7 8 8 7 7 6 6 5 4 4 4 4 5 6 6 5 5 5 6 4 2 2 1 1 2 2 1 3 3 4 4 4 3 2 3 5 7 7 7 8 10 10 11 13 16 17 19
19 20 21 22 24 26 26 25 26 25 24 22 21 20 20 21 22 21 20 20 18 16 15 14 12 11 10 10 10 9 8 8 8 8 8 8 8 7 8 9 8 6 6 6 5 5 4 3 3 4 3 3 4 6 6 5 6 3 2 3 2 1 2 2 2 1 2 3 3 3 2 3 4 5 7 7 5 6 9 9 8 9 10 12 16
19 20 21 22 25 27 28 27 26 25 24 22 21 22 22 22 22 22 21 20 18 15 14 14 14 13 12 11 11 10 9 9 9 9 9 9 9 9 8 9 9 7 6 5 5 5 5 5 5 5 4 3 3 7 7 6 6 4 2 3 3 4 3 2 2 1 1 2 3 4 3 2 3 5 6 6 4 4 5 5 8 9 8 8 9
23 24 25 26 28 29 28 27 25 24 24 23 22 22 23 23 22 21 19 17 16 15 15 14 14 13 12 11 9 8 8 7 8 9 9 9 9 9 9 9 9 7 6 5 5 5 5 5 6 6 6 6 5 7 8 6 6 6 3 2 4 5 5 4 3 3 2 1 2 3 4 4 3 2 2 3 3 4 5 4 7 8 6 6 7
30 31 31 31 31 30 28 26 26 26 25 24 22 22 23 24 23 21 18 15 14 15 16 14 13 13 11 9 8 7 7 7 8 9 10 9 8 8 9 9 9 7 6 6 6 6 6 5 6 6 6 8 8 8 8 7 7 7 5 5 6 7 8 8 7 6 4 3 0 2 3 6 7 7 6 3 2 3 4 5 4 4 4 6 8
26 30 33 33 30 29 29 28 28 27 26 25 23 23 24 25 24 21 19 16 15 17 17 15 13 12 11 10 9 9 9 9 10 10 10 9 8 9 10 10 9 8 7 7 7 7 7 7 7 7 6 8 8 8 9 8 8 8 8 7 8 8 8 7 7 7 6 5 3 0 3 5 6 10 14 10 4 2 3 6 7 7 6 3 6
17 20 25 30 29 29 29 29 28 27 26 24 22 22 24 26 25 23 21 18 18 19 18 16 15 13 13 12 11 11 12 12 12 12 10 9 8 9 10 11 10 9 8 8 7 7 7 8 8 7 7 7 8 8 9 10 10 10 10 9 9 9 8 7 7 8 6 5 3 1 3 5 4 9 15 16 14 13 13 15 15 14 13 8 5
Wind_Direction
163 163 159 158 157 159 159 158 160 155 153 149 144 139 134 129 125 121 119 119 120 123 125 126 126 125 125 124 122 120 117 115 114 113 111 110 108 105 104 103 103 105 104 103 105 105 107 111 112 111 110 109 108 108 109 112 113 112 112 110 111 111 107 105 105 103 100 98 98 97 96 93 88 90 93 90 89 88 88 87 87 85 81 78 78
159 157 155 155 156 157 158 158 159 155 153 150 145 140 136 132 128 124 122 122 123 126 127 128 126 124 123 122 120 119 117 115 114 112 109 107 106 104 105 101 100 104 106 106 106 105 105 106 109 110 109 110 110 109 111 112 112 113 114 113 113 111 108 110 108 104 102 101 101 101 98 95 92 92 94 93 90 89 89 88 87 85 81 79 79
153 150 149 150 152 155 158 156 156 155 152 150 147 142 138 134 131 127 125 125 126 129 130 130 128 126 125 124 123 121 119 116 115 112 108 108 110 108 108 102 99 103 106 107 107 107 106 106 106 106 107 109 110 110 113 114 113 113 114 114 112 111 109 108 104 102 103 103 102 103 99 94 94 95 95 93 91 90 88 86 85 83 82 80 79
151 146 145 146 149 155 158 155 154 154 152 150 148 143 140 136 133 131 130 129 129 131 132 132 131 130 128 127 125 123 120 118 116 112 110 111 113 113 113 106 100 101 105 106 107 108 108 111 107 101 104 108 110 111 114 116 116 115 115 114 113 110 107 104 102 100 99 99 100 103 100 98 97 96 98 96 93 91 90 88 85 82 82 79 76
150 146 145 145 149 155 157 154 153 154 152 150 148 145 142 140 137 134 133 132 132 132 134 134 134 132 130 129 126 124 121 119 116 114 115 115 115 114 115 111 103 102 106 109 107 106 103 107 106 100 103 109 112 114 116 119 120 116 116 116 113 108 105 103 100 96 94 94 96 100 103 104 99 94 95 97 96 93 93 92 89 86 84 80 76
148 145 145 145 150 154 155 154 153 154 153 151 151 149 146 143 140 137 136 135 133 133 135 136 136 134 132 129 126 124 122 120 118 119 119 118 117 117 116 114 111 108 110 112 111 111 107 108 110 107 106 111 116 119 119 121 122 119 119 117 113 108 105 101 97 93 90 91 92 98 102 101 97 96 97 97 98 98 97 94 92 88 84 81 77
146 147 148 147 150 151 154 155 154 153 153 154 154 152 149 146 144 141 138 136 135 135 136 136 137 136 135 131 128 126 124 123 122 123 122 119 119 118 117 117 116 114 114 116 117 116 113 111 111 109 106 110 119 123 122 123 123 123 123 119 119 117 111 101 93 92 89 88 92 95 97 99 102 104 104 99 96 97 98 95 94 89 87 84 80
144 149 150 148 150 152 154 155 152 151 154 157 156 154 152 148 147 144 140 138 136 137 136 137 137 138 138 135 131 129 127 127 128 128 126 124 122 119 119 123 121 119 119 121 121 116 112 110 109 107 102 111 125 129 128 128 126 126 126 124 128 131 132 123 102 102 99 91 93 95 95 104 110 109 108 104 98 96 98 97 97 93 89 85 83
137 141 145 147 151 154 153 153 151 149 153 157 158 157 154 151 149 146 143 140 138 138 137 137 138 142 142 139 135 132 132 132 133 132 132 131 130 128 130 135 130 123 125 130 130 119 111 113 110 101 99 110 125 130 131 132 129 127 129 131 135 139 146 144 127 125 119 101 98 99 96 103 111 112 113 110 105 103 105 102 98 95 92 87 85
133 135 142 146 150 153 151 150 148 148 151 156 158 158 155 153 150 147 145 142 140 140 137 136 138 141 142 140 138 137 137 137 136 135 135 136 137 138 142 144 135 127 131 141 142 129 117 112 104 93 100 111 121 129 133 137 136 134 133 133 139 144 152 156 151 151 139 116 109 105 99 103 110 114 111 103 103 105 105 99 96 95 94 94 93
136 138 142 147 153 153 150 147 146 148 152 154 157 159 158 155 152 149 147 144 142 141 138 137 138 139 140 140 140 140 141 139 136 135 134 138 142 145 147 148 143 137 140 148 147 138 125 110 97 93 104 116 125 133 138 141 140 139 136 134 135 135 155 171 167 163 149 130 121 112 108 104 105 110 110 109 108 107 107 104 101 99 99 97 95
135 137 139 146 151 149 146 145 146 150 154 155 156 159 160 157 154 151 148 146 143 141 139 139 140 140 141 142 142 141 140 137 133 130 130 136 143 146 150 155 153 148 149 152 150 142 130 111 101 100 110 124 132 136 138 140 139 137 132 132 123 115 145 167 169 167 151 138 130 117 113 107 106 109 110 116 116 112 112 111 109 105 103 97 92
132 133 134 137 142 148 146 144 147 152 155 156 156 158 160 159 155 153 149 146 144 142 141 142 143 143 143 143 143 140 137 134 130 127 128 132 138 145 153 159 157 154 153 153 152 146 138 121 111 110 117 127 132 132 133 133 130 128 126 125 106 101 132 142 155 159 147 142 135 122 117 108 110 112 112 119 117 115 114 116 118 113 106 101 100
133 132 131 130 133 144 145 145 151 155 158 158 157 158 160 159 156 153 149 146 145 144 143 144 145 145 145 143 141 138 135 132 128 128 128 131 137 144 151 155 154 155 155 150 149 148 139 127 123 122 121 122 124 125 124 123 119 114 115 116 97 98 126 131 141 146 142 144 136 124 118 110 108 102 110 120 120 118 117 118 118 112 109 107 105
134 132 130 129 127 133 145 150 154 158 160 158 158 161 160 158 155 153 150 149 148 147 146 146 145 146 145 142 140 137 133 131 128 129 129 132 137 144 149 147 142 142 141 138 137 133 122 121 127 127 120 115 116 117 115 113 108 102 101 102 92 101 131 139 141 142 140 143 134 124 118 112 103 93 109 123 124 122 121 121 115 114 114 110 103
134 132 133 131 130 138 155 156 158 162 161 159 161 163 161 158 155 153 151 151 149 148 149 148 146 145 144 142 140 137 133 131 130 130 129 133 139 143 146 140 131 129 127 123 123 119 114 118 127 127 118 110 110 110 109 107 102 92 89 86 85 101 135 149 148 147 144 142 134 126 120 111 100 101 121 136 136 127 126 125 120 122 118 112 106
138 138 138 136 135 143 159 162 164 165 162 162 164 163 162 159 156 154 152 151 150 150 150 148 148 146 146 144 142 139 134 133 133 132 132 136 141 144 143 136 129 127 123 118 118 118 116 121 128 127 117 111 108 107 104 104 98 88 85 82 81 95 129 156 158 156 151 146 138 129 121 114 110 115 138 160 155 134 130 128 124 125 120 116 112
143 145 144 142 141 149 162 167 170 168 166 166 166 166 166 162 157 154 152 152 152 152 151 149 149 149 148 147 146 142 135 134 135 136 137 139 144 146 143 137 133 130 125 121 122 121 121 125 130 128 121 117 110 107 103 101 95 84 86 84 79 86 121 160 165 164 160 152 144 136 130 125 124 126 150 173 158 134 131 129 126 125 123 122 114
147 148 148 147 148 154 164 169 172 170 170 171 169 170 169 164 158 154 153 154 154 153 153 152 152 151 151 150 148 144 138 136 137 139 139 140 144 147 146 142 138 136 132 126 127 128 127 128 130 129 126 124 115 107 101 100 95 80 85 87 76 76 116 161 168 168 169 160 153 145 140 140 133 137 158 172 157 143 139 134 130 131 130 126 122
152 153 152 153 155 159 164 169 171 170 174 174 172 172 167 162 157 155 156 156 157 156 156 156 154 153 154 152 150 146 140 141 140 138 139 140 142 146 148 146 142 143 141 134 133 135 135 134 132 130 129 129 125 115 104 105 99 83 84 90 82 73 105 156 170 172 173 167 161 155 147 151 151 155 172 177 163 152 144 138 135 135 133 131 132
155 158 157 158 162 166 167 168 170 172 176 175 173 169 163 160 157 157 158 158 159 157 157 157 157 158 160 158 156 154 149 149 146 143 146 145 144 147 150 148 148 150 149 145 144 145 144 143 141 137 136 138 140 140 128 119 107 95 93 96 95 83 98 147 171 176 179 175 169 167 160 169 186 178 187 182 165 160 155 145 136 133 132 133 133
157 160 163 164 167 171 171 170 172 174 176 175 173 166 162 161 159 161 161 161 160 160 163 163 165 167 167 165 164 164 161 160 157 155 157 157 158 158 158 155 157 161 161 157 154 152 151 152 153 148 145 151 161 168 158 138 119 103 103 109 110 100 102 144 172 181 183 181 178 180 171 183 198 185 188 185 179 184 173 151 143 141 139 135 134
163 165 168 169 171 173 175 175 174 176 176 173 171 166 164 164 164 166 164 166 167 169 171 169 172 173 171 169 168 169 165 164 163 163 166 169 174 172 171 169 171 175 173 170 167 163 159 158 159 161 160 158 166 179 179 158 140 117 109 121 126 121 113 143 171 182 186 186 189 193 184 194 202 191 192 192 201 203 172 153 152 151 147 142 142
171 170 171 173 175 176 177 178 177 177 175 172 171 168 167 168 171 171 170 173 175 177 177 175 178 178 176 175 174 172 168 166 167 172 179 186 188 186 185 183 183 187 187 184 184 182 173 165 166 173 181 167 165 181 187 177 160 141 120 132 140 139 129 145 168 179 188 193 199 202 194 203 204 197 200 201 212 200 165 158 159 156 154 150 147
172 172 174 178 180 180 181 181 180 178 176 173 171 172 171 173 176 175 177 181 183 184 183 184 184 185 186 187 185 180 177 177 180 187 193 201 202 202 201 196 193 192 199 201 198 195 186 180 184 174 168 142 148 171 183 198 212 184 166 163 160 158 152 158 171 182 191 199 205 204 199 210 211 204 204 209 218 194 169 165 163 163 161 152 151
173 177 180 183 185 184 185 183 181 180 179 176 173 174 175 178 181 180 182 185 188 192 190 191 191 194 198 199 196 189 188 189 195 204 209 215 220 220 213 208 206 201 205 212 213 209 201 200 195 170 138 120 130 151 175 224 299 308 309 259 189 180 179 179 180 188 196 202 206 203 202 210 214 211 205 214 221 189 175 174 169 171 166 156 155
177 184 186 187 189 188 187 184 183 183 181 180 177 177 178 181 183 183 187 189 193 199 200 202 200 203 207 209 205 201 202 203 207 215 220 226 234 235 224 218 218 213 212 215 219 218 211 206 197 186 160 126 134 151 191 307 327 326 317 275 214 194 197 197 186 189 200 203 202 202 203 209 215 217 209 214 214 186 181 182 174 176 173 161 161
179 188 191 190 191 190 189 187 186 185 184 183 182 181 182 184 187 189 192 196 201 207 213 213 212 214 217 219 218 215 215 218 222 224 229 233 240 239 230 224 224 224 221 217 218 220 217 209 200 205 202 178 178 199 287 327 341 338 319 268 232 208 207 217 203 193 200 202 199 201 204 208 213 217 215 215 208 185 185 190 181 183 182 170 170
181 186 191 191 190 191 191 191 187 186 187 188 189 188 187 189 195 198 198 202 207 213 218 217 222 226 225 226 231 229 224 228 233 233 235 239 241 238 232 228 228 231 231 226 221 223 227 224 221 231 245 250 257 275 303 319 331 341 321 274 248 232 227 241 225 203 202 204 202 204 207 212 214 217 220 216 202 188 189 194 188 190 191 182 181
185 182 185 189 188 189 191 192 189 189 192 194 196 196 195 196 201 205 208 210 210 215 221 222 227 231 235 236 240 237 231 234 237 239 240 241 241 236 230 227 230 235 239 236 229 229 234 237 241 250 265 272 281 287 297 301 296 345 335 290 267 257 251 257 241 215 205 205 207 211 212 215 215 217 224 221 204 193 196 197 193 195 196 191 187
186 180 183 188 187 185 187 192 194 192 195 198 200 202 204 205 207 209 213 219 220 224 230 234 233 233 239 241 240 236 233 237 238 240 239 237 239 238 231 228 235 241 242 238 234 233 234 241 250 257 269 277 281 283 290 289 267 326 347 302 276 271 266 264 249 225 212 208 209 216 216 214 215 218 225 227 214 197 200 208 203 199 198 197 193
184 182 184 186 183 178 181 193 200 196 197 201 202 206 209 213 215 213 217 229 237 244 245 244 243 239 238 235 233 230 227 228 231 233 235 240 248 249 245 247 254 248 240 235 236 237 234 240 251 255 264 273 272 264 274 278 257 280 325 315 290 282 270 261 249 229 218 212 212 218 218 215 215 221 229 232 228 204 203 215 211 206 206 202 198
183 184 184 185 183 181 187 197 203 200 200 203 206 210 213 217 220 218 225 237 246 256 252 246 246 239 235 233 232 229 223 226 225 220 226 242 255 261 261 261 261 254 245 239 237 238 239 242 246 249 257 262 253 238 245 246 232 263 299 324 322 308 268 245 239 228 221 216 215 220 220 219 217 220 230 236 238 214 206 214 209 213 217 208 204
183 182 184 185 183 183 191 197 200 203 202 206 211 214 216 219 220 220 227 237 246 253 247 242 241 231 231 237 241 237 229 233 232 228 229 234 245 257 257 252 255 255 254 247 242 243 244 241 238 241 249 249 238 232 235 223 226 259 276 323 338 349 291 230 225 223 223 220 219 221 221 221 220 220 227 232 239 227 214 219 216 211 215 220 216
182 184 186 182 178 180 186 191 197 204 204 209 215 214 216 213 214 220 225 235 240 240 237 235 233 224 227 236 241 237 229 232 232 230 231 230 238 250 247 241 246 250 253 250 247 250 248 243 239 239 243 238 224 230 251 226 235 224 175 282 6 34 8 220 216 215 219 221 220 223 223 224 226 225 226 228 233 231 224 228 228 216 213 223 225
181 190 189 177 177 182 183 188 197 204 207 212 214 211 210 206 209 213 210 224 229 226 217 200 190 187 205 220 230 235 232 228 222 222 226 229 233 243 249 245 240 243 249 249 248 250 248 246 246 243 233 219 212 209 231 201 204 182 163 181 72 77 102 172 203 211 215 219 221 225 226 227 231 231 231 231 231 231 229 231 233 225 220 225 224
185 192 190 177 178 183 180 188 198 204 209 214 214 210 205 199 196 189 186 203 218 207 174 162 157 155 172 185 186 205 221 221 224 229 231 232 233 241 250 247 240 241 243 245 246 243 239 240 242 234 214 206 211 207 187 188 189 180 171 193 200 113 113 137 177 200 212 219 222 227 229 230 234 235 239 242 241 237 234 233 235 231 227 229 229
187 192 195 185 183 183 179 186 197 203 209 214 215 210 200 189 184 184 182 183 181 168 151 147 144 141 147 152 149 151 165 184 219 230 231 239 239 241 250 250 244 240 241 247 248 242 237 238 232 218 208 206 211 209 199 206 203 186 167 179 209 178 133 126 150 179 201 214 218 223 228 231 235 239 245 249 248 249 245 239 238 237 233 232 236
188 194 199 197 192 185 178 180 191 203 209 213 213 206 196 187 186 185 177 166 158 152 141 133 133 132 131 127 124 121 117 116 132 160 182 219 228 228 245 249 244 237 240 246 243 240 239 235 224 209 212 214 214 213 205 209 218 213 176 156 187 197 165 143 136 149 166 182 191 200 214 225 234 240 244 248 248 252 251 246 245 244 241 235 237
194 198 201 202 193 181 174 175 187 204 208 205 202 197 191 189 190 188 180 167 156 149 140 135 136 132 126 123 121 121 123 122 122 127 135 163 179 195 217 224 228 227 237 242 238 237 237 234 226 213 221 222 215 216 211 208 206 207 205 167 164 186 186 166 155 152 154 157 160 167 183 202 221 232 236 242 244 245 245 246 250 251 250 244 238
199 201 205 205 190 178 172 172 186 200 202 198 194 192 190 190 193 194 187 171 163 156 145 144 144 137 131 130 129 137 142 137 136 141 140 153 161 166 177 171 182 188 215 238 239 237 237 244 240 220 228 224 209 211 215 211 200 203 221 187 169 176 191 187 179 177 178 176 172 172 175 176 184 207 222 231 236 239 238 238 245 251 253 251 245
202 201 207 204 186 178 172 172 183 191 195 198 193 192 193 192 191 192 187 173 170 163 152 149 146 142 140 138 141 151 157 155 153 160 158 159 153 144 147 145 149 168 188 211 218 221 225 235 235 218 225 216 205 205 209 213 199 194 200 174 155 171 180 181 178 185 195 200 205 203 197 189 179 183 216 226 231 235 233 231 236 244 249 251 250
203 202 204 198 181 176 175 179 183 183 187 189 186 187 189 190 186 180 176 168 163 158 153 150 149 149 149 152 161 164 165 167 167 180 174 157 143 143 148 140 122 136 170 183 193 204 209 219 220 218 220 195 185 191 194 209 198 170 156 140 135 144 167 166 149 153 175 194 207 211 212 212 209 213 230 236 237 241 236 232 233 238 243 247 250
198 197 197 192 177 175 180 185 182 178 178 176 177 179 176 174 170 163 164 160 155 155 154 153 157 159 153 147 156 160 157 162 169 182 176 158 151 154 150 139 123 121 140 156 176 196 203 214 215 219 222 189 164 161 178 195 190 166 132 101 105 93 125 259 118 120 133 159 173 179 198 214 218 218 224 235 242 248 247 240 239 243 246 248 249
188 189 190 187 177 177 183 185 180 176 175 173 175 176 170 164 157 152 153 151 151 155 156 155 159 161 153 141 140 149 152 154 158 162 162 155 154 161 153 144 137 133 135 138 149 169 182 197 203 213 222 199 176 156 163 182 184 182 160 128 86 74 220 241 99 101 115 142 152 144 150 175 199 205 208 221 231 240 249 246 245 253 257 257 256
182 185 185 184 180 179 181 182 178 176 177 178 181 181 175 169 162 157 154 151 152 156 156 152 151 150 145 140 138 143 149 149 150 150 149 142 139 152 159 155 151 144 138 132 134 138 138 146 156 171 184 203 201 166 157 176 181 181 136 110 82 89 166 169 127 92 66 105 131 130 133 155 171 183 195 211 222 236 252 245 240 258 266 269 271
180 183 182 185 184 181 182 183 180 180 182 183 186 186 181 178 175 171 167 163 160 158 154 149 145 142 140 141 139 139 144 144 145 146 143 134 127 134 149 153 150 147 146 143 139 134 125 123 124 129 132 136 180 163 152 164 173 170 119 84 69 77 98 120 134 127 71 68 77 95 97 135 180 185 193 207 220 242 266 242 225 241 257 271 285
181 181 183 187 186 184 186 187 185 184 185 185 188 190 188 185 182 180 177 176 171 159 152 148 145 145 143 144 143 144 148 148 149 148 142 133 124 127 142 152 151 150 156 151 139 130 120 116 116 116 114 109 116 131 134 144 159 166 164 117 85 84 89 89 98 117 134 115 30 57 69 80 122 159 206 234 254 264 285 273 232 232 243 258 281
184 183 185 188 187 186 188 188 187 187 187 190 193 195 195 191 187 185 181 177 171 160 157 155 154 155 154 152 153 153 154 157 160 153 142 131 118 118 136 152 153 150 151 140 127 124 118 115 116 115 106 98 96 99 105 114 128 138 139 118 101 99 93 86 86 91 99 107 48 338 32 70 85 67 50 29 326 293 300 314 295 288 283 257 270
187 186 186 187 186 187 188 188 187 188 191 195 197 197 196 194 191 189 184 177 167 163 164 164 165 168 166 159 156 151 148 150 153 151 141 129 116 110 116 123 124 124 129 129 126 126 121 118 119 118 107 96 91 85 86 96 106 108 108 108 106 100 92 82 78 77 81 91 105 32 14 51 69 54 48 47 39 28 26 27 24 11 1 303 283
198 201 191 184 185 187 188 189 190 193 195 198 201 199 197 196 195 193 188 180 172 169 171 173 175 180 176 165 159 155 152 149 147 147 141 130 120 110 103 100 98 98 101 106 113 118 118 118 118 116 109 98 94 91 89 93 98 98 95 94 93 87 82 76 68 67 74 82 90 67 12 33 56 50 51 62 74 82 78 67 62 57 52 49 19